Lexington Weather

Lexington, Massachusetts, USA

68°F
9/23/2021 5:27am 
  • Lexington Conditions: Mostly cloudy
  • Temperature: 67.6°F / 19.8°CWarmer 0.9°F than last hour.
  • Dew Point: 66.4°FIncreased 0.9°Fsince last hour.
  • Relative Humidity: 96
  • Wind: Calm, 10-min avg: Calm, gust: 2 mph
  • Barometer: 30.03 in Steady
  • Visibility: 10 miles
  • Rain Today: 0.00 in
  •   

Regional Weather Roundup
for Boston / Norton, MA

        
000
ASUS41 KBOX 162004
RWRBOX

REGIONAL WEATHER ROUNDUP
NATIONAL WEATHER SERVICE BOSTON/NORTON MA
400 PM EDT THU SEP 16 2021

NOTE:  "FAIR" INDICATES FEW OR NO CLOUDS BELOW 12,000 FEET WITH NO 
SIGNIFICANT WEATHER AND/OR OBSTRUCTIONS TO VISIBILITY.

MAZALL-162100-
EASTERN MASSACHUSETTS
  
CITY           SKY/WX    TMP DP  RH WIND       PRES   REMARKS
BOSTON         CLOUDY    68  60  75 NE12      30.29R                  
BEVERLY        PTSUNNY   67  59  75 NE9       30.28S                  
LAWRENCE       CLOUDY    68  57  68 E8        30.30S                  
BEDFORD        CLOUDY    68  63  84 E8        30.27S                  
BLUE HILL      NOT AVBL                                               
NORWOOD        CLOUDY    67  60  78 NE8       30.28R                  
MARSHFIELD     CLOUDY    68  64  88 NE7       30.27S                  
PLYMOUTH       CLOUDY    70  65  84 NE9       30.27S                  
TAUNTON        PTSUNNY   72  65  78 VRB5      30.26R                  
NEW BEDFORD    CLOUDY    72  66  81 NE7       30.25R                  
$$

MAZALL-162100-
CAPE COD AND THE ISLANDS
  
CITY           SKY/WX    TMP DP  RH WIND       PRES   REMARKS
FALMOUTH       MOSUNNY   72  64  78 NE12      30.25S                  
HYANNIS        MOSUNNY   73  66  78 NE6       30.23S                  
CHATHAM        CLOUDY    69  64  84 NE8       30.26S                  
PROVINCETOWN   CLOUDY    67  65  93 NE12      30.28R                  
NANTUCKET      SUNNY     72  67  84 NE10      30.22F                  
MARTHAS VNYRD  PTSUNNY   72  67  84 NE13      30.23F                  
$$
 
MAZALL-162100-
CENTRAL AND WESTERN MASSACHUSETTS
  
CITY           SKY/WX    TMP DP  RH WIND       PRES   REMARKS
WORCESTER      CLOUDY    66  61  84 E7        30.29R                  
FITCHBURG      CLOUDY    68  61  78 NE6       30.28F                  
ORANGE         CLOUDY    70  62  76 NE6       30.28R                  
SPRINGFIELD    CLOUDY    73  63  70 E7        30.23R                  
WESTFIELD      CLOUDY    75  65  70 NE5       30.23S                  
NORTH ADAMS    MOSUNNY   75  58  55 E8        30.24S                  
PITTSFIELD     PTSUNNY   72  60  66 SE10      30.24S                  
$$
 
RIZALL-162100-
RHODE ISLAND
  
CITY           SKY/WX    TMP DP  RH WIND       PRES   REMARKS
PROVIDENCE     CLOUDY    73  66  78 NE9       30.25F                  
NEWPORT        CLOUDY    73  66  78 E7        30.24S                  
BLOCK ISLAND   CLOUDY    69  65  86 NE10      30.24S                  
SMITHFIELD     CLOUDY    70  66  87 VRB5      30.28S                  
WESTERLY       CLOUDY    71  66  84 VRB7      30.23F                  
$$
 
CTZALL-162100-
CONNECTICUT
  
CITY           SKY/WX    TMP DP  RH WIND       PRES   REMARKS
BRADLEY INTL   CLOUDY    74  64  71 SE9       30.23S                  
HARTFORD       CLOUDY    75  63  66 SE6       30.23S                  
BRIDGEPORT     CLOUDY    74  67  78 E13       30.21S                  
DANBURY        CLOUDY    76  64  66 E7        30.23S                  
GROTON         PTSUNNY   73  66  78 NE10      30.22F                  
NEW HAVEN      CLOUDY    75  68  78 NE7       30.22S                  
CHESTER        PTSUNNY   72  68  88 NE8       30.24S                  
MERIDEN        CLOUDY    74  63  68 SE7       30.23S                  
WILLIMANTIC    CLOUDY    72  64  76 E8        30.25R                  
OXFORD         CLOUDY    72  65  78 E8        30.25S                  
$$

MEZ002-015-021-024-NHZ003-005-008-011-012-014-VTZ005-008-162100-
NORTHERN NEW ENGLAND
  
CITY           SKY/WX    TMP DP  RH WIND       PRES   REMARKS
PORTLAND ME    MOSUNNY   68  56  65 E8        30.30R                  
BANGOR ME      MOSUNNY   71  51  49 CALM      30.29S                  
CONCORD NH     PTSUNNY   71  61  70 SE5       30.27F                  
MANCHESTER NH  PTSUNNY   69  54  58 E6        30.27S                  
NASHUA NH      CLOUDY    70  60  70 SE9       30.29S                  
PORTSMOUTH NH  CLOUDY    67  51  57 E8        30.30S                  
JAFFREY NH     CLOUDY    67  63  87 VRB3      30.30S                  
KEENE NH       CLOUDY    70  63  78 VRB3      30.27R                  
BURLINGTON VT  MOSUNNY   74  55  51 NW8       30.25F                  
MT. WASHINGTON PTSUNNY   50  39  66 SW7         N/A                   
$$

NYZ052-076-162100-
EASTERN NEW YORK
  
CITY           SKY/WX    TMP DP  RH WIND       PRES   REMARKS
ALBANY         MOSUNNY   73  61  65 CALM      30.22F                  
NEW YORK CITY  CLOUDY    75  65  70 NE16      30.19S                  
$$
 
ANZALL-162100-
MARINE OBSERVATIONS
  
STATION/POSITION TIME  TEMP    WIND        PRES    VSBY  WAVE
                       AIR SEA DIR/SP/G                  HT/PER
                 (UTC) (F)     (DEG/KT/KT) (MB)    (MI)  (FT/S)
BOSTON BUOY      1940      67   40/ 14/ 16 1025.8R
BUZZARDS BAY     1900           70/ 15/ 16 1025.0R
NANTUCKET SOUND  1940   70 72   60/ 14/ 16 1023.7F
MASS BAY-STELLWA 1904   64      50/ 12/ 16 1025.1S  1 7/8  2/ 4
ISLE OF SHOALS   1900   63      50/ 12/ 13 1025.2S
S OF BLOCK IS    1926      69                N/A           3/ 4
$$

......................KEY.........................
  SKY/WX - SKY CONDITION/PRESENT WEATHER
  TMP    - TEMPERATURE IN FAHRENHEIT
  DWPT   - DEWPOINT IN FAHRENHEIT
  RH     - RELATIVE HUMIDITY IN PERCENT
  WIND   - DIRECTION AND SPEED IN MPH
  PRES   - MEAN SEA LEVEL PRESSURE IN INCHES OF HG
  WCI    - WIND CHILL INDEX
  VSB    - VISIBILITY IN MILES
  HX     - HEAT INDEX
  TC     - TEMPERATURE IN CELSIUS
  VRB    - VARIABLE WIND DIRECTION
  N/A    - NOT AVAILABLE
  
      

Other recent Regional Weather Roundups

Thu Sep 23, 5:04am

Thu Sep 23, 4:04am

Thu Sep 23, 3:04am

Thu Sep 23, 2:04am

Thu Sep 23, 1:04am

Thu Sep 23, 12:04am

Wed Sep 22, 11:04pm

Wed Sep 22, 10:04pm

Wed Sep 22, 9:04pm

Wed Sep 22, 8:04pm

Wed Sep 22, 7:04pm

Wed Sep 22, 6:04pm

Wed Sep 22, 5:04pm

Wed Sep 22, 4:04pm

Wed Sep 22, 3:04pm

Wed Sep 22, 2:04pm

Wed Sep 22, 1:04pm

Wed Sep 22, 12:05pm

Wed Sep 22, 11:04am

Wed Sep 22, 10:04am

Wed Sep 22, 9:04am

Wed Sep 22, 8:04am

Wed Sep 22, 7:04am

Wed Sep 22, 6:04am

Wed Sep 22, 5:04am

Wed Sep 22, 4:04am

Wed Sep 22, 3:04am

Wed Sep 22, 2:04am

Wed Sep 22, 1:04am

Wed Sep 22, 12:04am

Tue Sep 21, 11:04pm

Tue Sep 21, 10:04pm

Tue Sep 21, 9:04pm

Tue Sep 21, 8:04pm

Tue Sep 21, 7:04pm

Tue Sep 21, 6:04pm

Tue Sep 21, 5:04pm

Tue Sep 21, 4:04pm

Tue Sep 21, 3:04pm

Tue Sep 21, 2:04pm

Tue Sep 21, 1:04pm

Tue Sep 21, 12:04pm

Tue Sep 21, 11:04am

Tue Sep 21, 10:04am

Tue Sep 21, 9:04am

Tue Sep 21, 8:04am

Tue Sep 21, 7:04am

Tue Sep 21, 6:04am

Tue Sep 21, 5:04am

Tue Sep 21, 4:04am

Tue Sep 21, 3:04am

Tue Sep 21, 2:04am

Tue Sep 21, 1:04am

Tue Sep 21, 12:04am

Mon Sep 20, 11:04pm

Mon Sep 20, 10:04pm

Mon Sep 20, 9:04pm

Mon Sep 20, 8:04pm

Mon Sep 20, 7:04pm

Mon Sep 20, 6:04pm

Mon Sep 20, 5:04pm

Mon Sep 20, 4:04pm

Mon Sep 20, 3:04pm

Mon Sep 20, 2:04pm

Mon Sep 20, 1:04pm

Mon Sep 20, 12:04pm

Mon Sep 20, 11:04am

Mon Sep 20, 10:04am

Mon Sep 20, 9:04am

Mon Sep 20, 7:04am

Mon Sep 20, 6:04am

Mon Sep 20, 5:04am

Mon Sep 20, 4:04am

Mon Sep 20, 3:04am

Mon Sep 20, 2:04am

Mon Sep 20, 1:04am

Mon Sep 20, 12:04am

Sun Sep 19, 11:04pm

Sun Sep 19, 10:04pm

Sun Sep 19, 9:04pm

Sun Sep 19, 8:04pm

Sun Sep 19, 7:04pm

Sun Sep 19, 6:04pm

Sun Sep 19, 5:04pm

Sun Sep 19, 4:04pm

Sun Sep 19, 3:04pm

Sun Sep 19, 2:05pm

Sun Sep 19, 1:04pm

Sun Sep 19, 12:04pm

Sun Sep 19, 11:04am

Sun Sep 19, 10:05am

Sun Sep 19, 9:04am

Sun Sep 19, 8:04am

Sun Sep 19, 7:04am

Sun Sep 19, 6:04am

Sun Sep 19, 5:04am

Sun Sep 19, 4:04am

Sun Sep 19, 3:04am

Sun Sep 19, 2:04am

Sun Sep 19, 1:04am

Sun Sep 19, 12:04am

Sat Sep 18, 11:05pm

Sat Sep 18, 10:04pm

Sat Sep 18, 9:04pm

Sat Sep 18, 8:04pm

Sat Sep 18, 7:04pm

Sat Sep 18, 6:04pm

Sat Sep 18, 5:04pm

Sat Sep 18, 4:04pm

Sat Sep 18, 3:04pm

Sat Sep 18, 2:04pm

Sat Sep 18, 1:04pm

Sat Sep 18, 12:04pm

Sat Sep 18, 11:04am

Sat Sep 18, 10:04am

Sat Sep 18, 9:04am

Sat Sep 18, 8:04am

Sat Sep 18, 7:04am

Sat Sep 18, 6:04am

Sat Sep 18, 5:04am

Sat Sep 18, 4:04am

Sat Sep 18, 3:04am

Sat Sep 18, 2:04am

Sat Sep 18, 1:04am

Sat Sep 18, 12:04am

Fri Sep 17, 11:04pm

Fri Sep 17, 10:04pm

Fri Sep 17, 9:04pm

Fri Sep 17, 8:04pm

Fri Sep 17, 7:04pm

Fri Sep 17, 6:04pm

Fri Sep 17, 5:04pm

Fri Sep 17, 4:04pm

Fri Sep 17, 3:04pm

Fri Sep 17, 2:04pm

Fri Sep 17, 1:04pm

Fri Sep 17, 12:05pm

Fri Sep 17, 11:04am

Fri Sep 17, 10:04am

Fri Sep 17, 9:04am

Fri Sep 17, 8:04am

Fri Sep 17, 7:04am

Fri Sep 17, 6:04am

Fri Sep 17, 5:04am

Fri Sep 17, 4:04am

Fri Sep 17, 3:04am

Fri Sep 17, 2:04am

Fri Sep 17, 1:04am

Fri Sep 17, 12:04am

Thu Sep 16, 11:04pm

Thu Sep 16, 10:04pm

Thu Sep 16, 9:04pm

Thu Sep 16, 8:04pm

Thu Sep 16, 7:04pm

Thu Sep 16, 6:04pm

Thu Sep 16, 5:04pm

Thu Sep 16, 3:04pm

Thu Sep 16, 2:04pm

Thu Sep 16, 1:05pm

Thu Sep 16, 12:04pm

Thu Sep 16, 11:05am

Thu Sep 16, 10:05am

Thu Sep 16, 9:04am

Thu Sep 16, 8:04am

Thu Sep 16, 7:04am

Thu Sep 16, 6:04am

Meta data:

ID: 1cae7031-ff66-4693-a4d6-f0fccdf7cdf8
Link: https://api.weather.gov/products/1cae7031-ff66-4693-a4d6-f0fccdf7cdf8